Overview Statistics Trail Chart Weather Telemetry Raw packets
 

This is the latest recevied weather packets stored in our database for station/object N7ZAP. If no packets are shown the sender has not sent any weather packets the latest 10 day(s).

<< 40 41 42 43 44 45 46 >>
Time Temp. Humidity Pressure Rain* Wind** Luminosity Snow
1788418425 23.33° C 30% 1019.5 hPa 0 mm - - -
1788418124 23.33° C 29% 1019.4 hPa 0 mm - - -
1788417820 23.89° C 29% 1019.5 hPa 0 mm - - -
1788417516 24.44° C 29% 1019.6 hPa 0 mm - - -
1788417211 23.89° C 28% 1019.4 hPa 0 mm - - -
1788416907 24.44° C 29% 1019.2 hPa 0 mm - - -
1788416606 24.44° C 28% 1019.2 hPa 0 mm - - -
1788416303 24.44° C 28% 1019.2 hPa 0 mm - - -
1788416001 25° C 28% 1019.1 hPa 0 mm - - -
1788415698 25° C 27% 1019.1 hPa 0 mm - - -
1788415397 25° C 27% 1018.9 hPa 0 mm - - -
1788415095 25° C 27% 1018.9 hPa 0 mm - - -
1788414793 25° C 28% 1019 hPa 0 mm - - -
1788414489 25° C 28% 1018.9 hPa 0 mm - - -
1788414189 25° C 27% 1018.9 hPa 0 mm - - -
1788413886 25.56° C 28% 1018.8 hPa 0 mm - - -
1788413586 26.11° C 27% 1019 hPa 0 mm - - -
1788413281 26.11° C 26% 1018.7 hPa 0 mm - - -
1788412977 26.67° C 26% 1018.8 hPa 0 mm - - -
1788412672 26.67° C 25% 1018.5 hPa 0 mm - - -
1788412368 27.22° C 24% 1018.8 hPa 0 mm - - -
1788412063 27.22° C 24% 1019.1 hPa 0 mm - - -
1788411762 27.22° C 25% 1018.9 hPa 0 mm - - -
1788411457 27.22° C 26% 1019 hPa 0 mm - - -
1788411153 27.78° C 27% 1019 hPa 0 mm - - -

* Rain latest hour (hover to see other rain measurements)
** Current wind speed in m/s (hover to see current wind gust speed)